Location: Newark
(45.6000°N, 12.8833°E)
Time: 11:33:49
(UTC+00:00)

ISS - Visible Passes

Search period start: 20 October 2019 00:00
Search period end: 30 October 2019 00:00
Orbit: 411 x 421 km, 51.6° (Epoch: 20 October)

Date Brightness Start Highest point End Pass type
(mag) Time Alt. Az. Time Alt. Az. Time Alt. Az.
22 Oct -0.3 04:51:38 10° SE 04:52:25 11° SE 04:53:13 10° ESE visible
24 Oct -1.5 04:48:43 10° SSW 04:51:35 26° SE 04:54:27 10° E visible
25 Oct -0.9 04:00:57 10° S 04:03:08 16° SE 04:05:19 10° E visible
26 Oct -3.3 04:47:32 10° SW 04:50:52 63° SSE 04:54:12 10° ENE visible
27 Oct -2.5 04:00:39 22° SSW 04:02:18 38° SE 04:05:28 10° ENE visible
28 Oct -1.4 03:14:29 22° ESE 03:14:29 22° ESE 03:16:34 10° E visible
28 Oct -3.7 04:47:24 13° WSW 04:50:18 61° NNW 04:53:38 10° ENE visible
29 Oct -3.9 04:01:05 61° WSW 04:01:37 90° NNW 04:04:59 10° ENE visible
